Showing default

FLOCK 4BE 13, 60512

Orbit data source: Space-Track

FLOCK 4BE 13, 60512 is a payload satellite owned by Planet (US) in SSO that was launched on Fri, 16 Aug 2024 UTC via an FALCON 9 launch vehicle from the Air Force Western Test Range (AFWTR). Payload-class satellites include a variety of spacecraft equipped with specific instruments for various scientific and technological missions. These include communications satellites like Starlink; space stations such as the ISS; scientific satellites like the Hubble; Earth observation satellites from companies like Planet Labs, Umbra, and HawkEye 360; GPS; miniature CubeSats for education and research; and military/defense satellites.

Loading next visibility...
Identifier
60512, 2024-149AW
Orbit
SSO
Country
Flag of USUS
Related business
Manufacturer
Planet
Mission
Operational Commercial Imaging
Bus & Motor
CUBESAT 3U, Unknown motor
Mass
5.7 kg wet, 5.7 kg dry
Launch date (UTC)
2024-08-16 (2 years ago)
Launch vehicle
FALCON 9
Launch site
Air Force Western Test Range (AFWTR)
Object type
Payload
Rocket body
Debris
Shape & HBR
Box + 2 Pan, 1.0 m
Radar Cross Section
0.072 m², Medium (>0.1 m² and < 1m²)

Expand to show TLE details & history
Last TLE update: 1 day ago

TLE from 1 day ago
0 FLOCK 4BE 13
1 60512U 24149AW  26174.19117784  .00011933  00000-0  28161-3 0  9990
2 60512  97.3715 258.6653 0003274 231.4286 128.6668 15.42025241103293
Epoch: 2026-06-23T04:35Z
TLE epoch observation values (Epoch: 2026-06-23T04:35:17.765Z)
Latitude
-0.00003°
Longitude
-81.525°
Altitude
444.649 km
Speed
7.645 km/s
True Right ascension
17h 14m 39s
True Declination
0° 00' 00"
Sunlit
Object was in full shadow at epoch
Visualization orbit readout
Latitude
Unknown
Longitude
Unknown
Altitude
Unknown
Speed
Unknown
Apparent Right ascension
Unknown
Apparent Declination
Unknown
Sunlit
N/A
Visualization observer readout
Local Sidereal Time
21:47:32
Azimuth
Unknown
Elevation
Unknown
Doppler factor
Unknown
Orbital elements
Apogee altitude
439.299 km
Perigee altitude
434.837 km
Semi-major axis
6,815.205 km
Eccentricity
0.00033
Inclination
97.3715°
RAAN
258.6653°
Arg. of periapsis
231.4286°
True anomaly
128.69609°
Mean anomaly
128.6668°
Eccentric anomaly
128.68144°
Mean motion
3.85767 °/min
Orbital period
93.32 mins
BSTAR
0.00028161
Loading maneuver chart data...
Computing Atmospheric mass density...
Loading historical data...
Loading historical data...
Loading historical data...
Loading historical data...
Loading historical data...
Loading historical data...
Loading historical data...

Documentation

Showing up to 5 results
|